SCOUT A DEB, 2226

Orbit data source: Space-Track

SCOUT A DEB, 2226 is space debris in LEO originally from a launch on Wed, 22 Dec 1965 UTC launched from the Air Force Western Test Range (AFWTR). Debris objects in space refer to the collection of defunct objects orbiting the Earth. Examples of debris include non-operational satellites, rocket bodies, and fragments generated from explosions, collisions, or faulty payload assembly.

Loading next visibility...
Identifier
2226, 1965-109D
Orbit
LEO
Last TLE update
18 hours ago
Origin
Manufacturer
Unknown
Mission
Spacecraft
Bus & Motor
Unknown
Mass
Unknown
Launch date (UTC)
1965-12-22 (59 years ago)
Launch vehicle
Unknown
Launch site
Air Force Western Test Range (AFWTR)
Object type
Payload
Rocket body
Debris
Shape & HBR
Unknown
Radar Cross Section
Small (<0.1 m²)

Expand to show TLE details & history

TLE from 18 hours ago
0 SCOUT A DEB
1 02226U 65109D   25128.63252261  .00000303  00000-0  36704-3 0  9997
2 02226  89.0679 345.2719 0249059 134.2778 227.9106 13.51136319899056
Epoch: 2025-05-08T15:10Z
Definitive object data (Epoch: 2025-05-08T15:10:49.953Z)
Latitude
-0.00005°
Longitude
-109.13647°
Altitude
1,197.854 km
Speed
7.193 km/s
True Right ascension
23h 01m 05s
True Declination
0° 00' 00"
Sunlit
Object was in daylight at TLE epoch
Visualization TLE readout
Latitude
-48.41779°
Longitude
-110.2507°
Altitude
1,272.392 km
Speed
7.128 km/s
Apparent Right ascension
01h 49m 52s
Apparent Declination
-53° 50' 37"
Sunlit
Object is in daylight
Visualization observer readout
Local Sidereal Time
16:51:31
Azimuth
130.075° SE
Elevation
-56.696°
Doppler factor
1
Orbital elements
Apogee altitude
1,250.51 km
Perigee altitude
879.747 km
Semi-major axis
7,443.265 km
Eccentricity
0.0249059
Inclination
89.0679°
RAAN
345.2719°
Arg. of periapsis
134.2778°
True anomaly
225.83642°
Mean anomaly
227.9106°
Eccentric anomaly
226.86918°
Mean motion
3.37985 °/min
BSTAR
0.00036704
Orbital period
106.51 mins
Loading maneuver chart data...
Loading SW <> Apogee altitude chart data...
Loading historical data...
Loading historical data...
Loading historical data...
Loading historical data...
Loading historical data...
Loading historical data...
Loading historical data...

SCOUT A DEB Visibility forecast

Observer location: undefined°, undefined°

Span
Click to sort rows by Start time (UTC) header in descending order
Start Az.
Max El. time (UTC)
Max El. Az.
Max El.
End time (UTC)
End Az.
12 mins2025-05-09 14:23:18.581Z160.573° S2025-05-09 14:29:18.581Z82.753° E40.82°2025-05-09 14:35:18.581Z7.421° NNE
8 mins2025-05-09 16:12:18.581Z240.585° WSW2025-05-09 16:16:18.581Z282.724° WNW19.927°2025-05-09 16:20:18.581Z324.337° NNW
7 mins2025-05-10 01:34:18.581Z39.08° NE2025-05-10 01:37:18.581Z78.322° E21.56°2025-05-10 01:41:18.581Z128.363° SE
9 mins2025-05-10 03:20:18.581Z339.429° N2025-05-10 03:24:18.581Z273.973° WNW33.246°2025-05-10 03:29:18.581Z210.356° SW
|